Location: The Jewett Observatory
(46.7288°N, 117.1525°W)
Time: 17:50:16
(UTC-07:00)

Amateur Radio Satellites - All Passes

Search period start: 26 July 2017 17:20
Search period end: 27 July 2017 17:20
Location: The Jewett Observatory, 46.7288°N, 117.1525°W

Satellite Date Start Highest point End Downlink Frequencies (MHz)
Time Altitude Azimuth
NO-84 26 Jul 17:25:02 17:28:46 69° 219° (SW) 17:32:49 435.350 FM
XW-2C 26 Jul 17:29:10 17:32:35 34° 70° (ENE) 17:36:01 145.795 - 145.815
O/OREOS (USA 219) 26 Jul 17:29:23 17:30:44 11° 318° (NW) 17:32:06 437.305
NUDT-PHONESAT 26 Jul 17:30:07 17:33:12 26° 68° (ENE) 17:36:20 437.300
HO-68 26 Jul 17:32:30 17:38:04 25° 54° (NE) 17:43:37 435.675
DOVE 4 26 Jul 17:37:50 17:42:48 74° 258° (WSW) 17:48:02 437.250
MOZHAYETS 4 26 Jul 17:44:37 17:47:38 18° 299° (WNW) 17:50:40
KAITUO 1B 26 Jul 17:46:43 17:50:12 41° 72° (ENE) 17:53:42 145.475/437.950
LilacSat-2 26 Jul 17:54:15 17:58:00 73° 75° (ENE) 18:01:47 437.200
XW-2F 26 Jul 18:05:11 18:08:55 87° 75° (ENE) 18:12:40 145.980 - 146.000
CUTE-I 26 Jul 18:05:57 18:11:19 81° 74° (ENE) 18:16:44 437.470
YUBILEINY 26 Jul 18:08:34 18:16:40 43° 86° (E) 18:24:45 435.215
KKS-1 26 Jul 18:11:28 18:15:56 68° 287° (WNW) 18:20:22 437.445
XW-2A 26 Jul 18:21:18 18:22:52 13° 63° (ENE) 18:24:25 145.665 - 145.685
CUBESAT XI-V 26 Jul 18:23:06 18:27:12 31° 293° (WNW) 18:31:18 437.345
CUBEBUG 2 26 Jul 18:27:44 18:31:01 19° 63° (ENE) 18:34:15 437.445
CUTE 1.7 + AOD 2 26 Jul 18:28:44 18:32:24 30° 68° (ENE) 18:36:06 437.475
XW-2D 26 Jul 18:35:37 18:39:07 37° 262° (W) 18:42:37 145.860 - 145.880
STARS 26 Jul 18:36:05 18:40:32 85° 284° (WNW) 18:44:55 437.465
SEEDS 26 Jul 18:37:44 18:41:07 25° 66° (ENE) 18:44:32 437.485
XW-2B 26 Jul 18:45:58 18:49:17 29° 264° (W) 18:52:37 145.730 - 145.750
NUDT-PHONESAT 26 Jul 19:04:03 19:07:04 24° 265° (W) 19:10:06 437.300
XW-2C 26 Jul 19:04:09 19:06:53 19° 267° (W) 19:09:37 145.795 - 145.815
NO-84 26 Jul 19:04:12 19:05:46 12° 233° (SW) 19:07:22 435.350 FM
AAUSAT CUBESAT 2 26 Jul 19:15:31 19:19:03 29° 67° (ENE) 19:22:37 437.432
HO-68 26 Jul 19:17:53 19:25:04 81° 254° (WSW) 19:32:18 435.675
RS-15 26 Jul 19:17:55 19:29:10 38° 340° (NNW) 19:40:17 29.354- 29.394
UWE-3 26 Jul 19:20:50 19:24:58 36° 69° (ENE) 19:29:02 435.000/436.395/437.385
BEESAT 3 26 Jul 19:21:15 19:23:58 17° 34° (NE) 19:26:38 437.485
KAITUO 1B 26 Jul 19:22:09 19:24:25 15° 269° (W) 19:26:40 145.475/437.950
Tancredo 1 26 Jul 19:24:53 19:27:08 20° 139° (SE) 19:29:23 437.200
ZACube-1 26 Jul 19:30:52 19:34:32 26° 66° (ENE) 19:38:07 437.345
AO-85 26 Jul 19:40:10 19:43:33 24° 40° (NE) 19:47:04 145.980
CUTE-I 26 Jul 19:48:55 19:52:01 15° 272° (W) 19:55:07 437.470
XW-2A 26 Jul 19:51:58 19:55:14 46° 260° (W) 19:58:30 145.665 - 145.685
Oscar 11 26 Jul 19:53:27 19:57:12 30° 67° (ENE) 20:00:58 .
CUBEBUG 2 26 Jul 20:02:40 20:07:15 55° 260° (W) 20:11:46 437.445
DELFI C3 26 Jul 20:04:28 20:04:33 10° 58° (ENE) 20:04:38 145.870
CUTE 1.7 + AOD 2 26 Jul 20:04:38 20:08:14 27° 266° (W) 20:11:50 437.475
YUBILEINY 26 Jul 20:04:51 20:13:20 50° 288° (WNW) 20:21:53 435.215
BEESAT 2 26 Jul 20:05:19 20:08:06 17° 34° (NE) 20:10:51 435.950
nSIGHT-1 26 Jul 20:08:51 20:11:25 22° 139° (SE) 20:14:00 .
AO-73 26 Jul 20:09:09 20:13:27 55° 73° (ENE) 20:17:39 145.935
SEEDS 26 Jul 20:12:53 20:16:40 33° 264° (W) 20:20:29 437.485
STARS 26 Jul 20:14:41 20:16:08 11° 304° (WNW) 20:17:35 437.465
STRAND 1 26 Jul 20:18:28 20:23:36 69° 102° (ESE) 20:28:40 437.568
AAUSAT CUBESAT 2 26 Jul 20:50:56 20:54:28 28° 265° (W) 20:58:02 437.432
UWE-3 26 Jul 20:57:40 21:01:29 26° 266° (W) 21:05:14 435.000/436.395/437.385
BEESAT 3 26 Jul 20:58:02 21:02:05 85° 230° (SW) 21:06:02 437.485
Tancredo 1 26 Jul 20:59:21 21:02:16 66° 337° (NNW) 21:05:13 437.200
ISS 26 Jul 21:03:59 21:07:12 60° 148° (SSE) 21:10:25 437.550
ZACube-1 26 Jul 21:06:39 21:10:41 34° 263° (W) 21:14:40 437.345
HO-68 26 Jul 21:09:45 21:13:53 16° 273° (W) 21:18:02 435.675
AO-85 26 Jul 21:20:05 21:24:11 54° 238° (WSW) 21:28:33 145.980
Oscar 11 26 Jul 21:29:33 21:33:18 29° 265° (W) 21:37:04 .
EO-88 26 Jul 21:32:57 21:36:30 53° 73° (ENE) 21:40:04 145.990 - 145.960
DELFI C3 26 Jul 21:34:42 21:38:38 90° 255° (WSW) 21:42:39 145.870
RS-15 26 Jul 21:34:57 21:45:59 35° 14° (NNE) 21:56:40 29.354- 29.394
FO-29 26 Jul 21:36:53 21:43:12 33° 91° (E) 21:48:50 435.910
BEESAT 2 26 Jul 21:42:18 21:46:24 85° 233° (SW) 21:50:26 435.950
nSIGHT-1 26 Jul 21:44:21 21:47:34 69° 337° (NNW) 21:50:48 .
AO-73 26 Jul 21:47:16 21:50:00 16° 270° (W) 21:52:43 145.935
STRAND 1 26 Jul 21:58:43 22:02:16 19° 301° (WNW) 22:05:46 437.568
YUBILEINY 26 Jul 22:09:55 22:12:51 12° 314° (NW) 22:15:48 435.215
UNISAT 6 26 Jul 22:15:59 22:19:52 31° 96° (E) 22:23:40 437.425
M-CUBED/EXP-1 PRIME 26 Jul 22:23:09 22:25:02 12° 93° (E) 22:26:54 437.505
Tancredo 1 26 Jul 22:35:20 22:37:59 30° 357° (N) 22:40:39 437.200
ISS 26 Jul 22:40:42 22:43:47 39° 348° (NNW) 22:46:54 437.550
ESTCUBE 1 26 Jul 22:53:15 22:57:30 45° 70° (ENE) 23:01:47 437.505/2401.250
TIGRISAT 26 Jul 22:59:22 23:03:43 82° 101° (E) 23:07:58 435.000
LO-87 26 Jul 23:03:49 23:07:27 90° 252° (WSW) 23:11:08 145.935 - 145.965
EO-88 26 Jul 23:09:05 23:10:30 12° 270° (W) 23:11:56 145.990 - 145.960
PRISM 26 Jul 23:11:37 23:15:49 83° 285° (WNW) 23:19:59 437.425
nSIGHT-1 26 Jul 23:21:20 23:24:19 33° 357° (N) 23:27:17 .
FO-29 26 Jul 23:21:36 23:28:33 52° 294° (WNW) 23:34:42 435.910
VELOX 1 26 Jul 23:30:27 23:34:09 27° 65° (ENE) 23:37:55 145.980
AIST 2D 26 Jul 23:30:43 23:33:35 23° 95° (E) 23:36:27 435.315
DX 1 26 Jul 23:32:46 23:33:21 10° 55° (NE) 23:33:57 434.975-435.025
DUCHIFAT 1 26 Jul 23:46:08 23:48:19 14° 90° (E) 23:50:30 145.980
RS-15 26 Jul 23:49:00 00:01:14 68° 46° (NE) 00:12:49 29.354- 29.394
50 SAT 26 Jul 23:49:28 23:51:17 14° 63° (ENE) 23:53:07 437.505
POLYITAN 1 26 Jul 23:51:07 23:54:11 19° 92° (E) 23:57:14 437.675
UNISAT 6 26 Jul 23:52:49 23:56:30 28° 294° (WNW) 00:00:08 437.425
M-CUBED/EXP-1 PRIME 26 Jul 23:55:20 23:59:58 88° 287° (WNW) 00:04:39 437.505
QB50P2 27 Jul 00:03:52 00:07:33 28° 95° (E) 00:11:12 145.880/145.840
SPROUT 27 Jul 00:04:46 00:09:01 64° 73° (ENE) 00:13:17 437.525
UKube-1 27 Jul 00:08:47 00:11:23 16° 60° (ENE) 00:13:58 .
Tancredo 1 27 Jul 00:10:58 00:13:48 43° 17° (NNE) 00:16:39 437.200
NANOSAT C BR1 27 Jul 00:13:44 00:17:27 30° 96° (E) 00:21:08 145.865
O/OREOS (USA 219) 27 Jul 00:13:52 00:18:13 46° 60° (ENE) 00:22:33 437.305
EO-79 27 Jul 00:15:01 00:18:52 34° 97° (E) 00:22:41 145.935-145.965
ISS 27 Jul 00:17:41 00:20:44 35° 8° (N) 00:23:47 437.550
ESTCUBE 1 27 Jul 00:31:08 00:34:31 21° 268° (W) 00:37:55 437.505/2401.250
TIGRISAT 27 Jul 00:37:58 00:39:45 12° 302° (WNW) 00:41:32 435.000
PRISM 27 Jul 00:49:43 00:50:22 10° 303° (WNW) 00:51:01 437.425
nSIGHT-1 27 Jul 00:58:00 01:01:08 47° 16° (NNE) 01:04:17 .
AIST 2D 27 Jul 01:03:52 01:06:44 24° 292° (WNW) 01:09:37 435.315
DX 1 27 Jul 01:04:23 01:08:45 76° 73° (ENE) 01:13:08 434.975-435.025
VELOX 1 27 Jul 01:06:25 01:10:28 35° 263° (W) 01:14:35 145.980
FO-29 27 Jul 01:09:01 01:11:49 13° 316° (NW) 01:14:31 435.910
DUCHIFAT 1 27 Jul 01:20:16 01:24:23 60° 287° (WNW) 01:28:29 145.980
50 SAT 27 Jul 01:20:24 01:23:39 43° 260° (W) 01:26:57 437.505
Gurwin Techsat 1B 27 Jul 01:25:06 01:27:59 15° 88° (E) 01:30:52 435.225
POLYITAN 1 27 Jul 01:26:11 01:30:10 42° 290° (WNW) 01:34:07 437.675
M-CUBED/EXP-1 PRIME 27 Jul 01:31:15 01:33:44 15° 307° (NW) 01:36:13 437.505
MOZHAYETS 4 27 Jul 01:37:31 01:38:52 11° 56° (ENE) 01:40:13
QB50P2 27 Jul 01:39:38 01:43:18 29° 293° (WNW) 01:46:56 145.880/145.840
BUGSAT 1 27 Jul 01:40:19 01:44:24 66° 102° (ESE) 01:48:25 437.445
UKube-1 27 Jul 01:42:37 01:46:55 64° 258° (WSW) 01:51:14 .
SPROUT 27 Jul 01:43:07 01:45:20 14° 271° (W) 01:47:34 437.525
Tancredo 1 27 Jul 01:46:24 01:49:11 38° 215° (SW) 01:51:57 437.200
NANOSAT C BR1 27 Jul 01:49:30 01:53:06 28° 293° (WNW) 01:56:40 145.865
EO-79 27 Jul 01:51:03 01:54:30 25° 294° (WNW) 01:57:56 145.935-145.965
O/OREOS (USA 219) 27 Jul 01:53:57 01:57:18 21° 258° (WSW) 02:00:39 437.305
ISS 27 Jul 01:54:11 01:57:27 84° 210° (SSW) 02:00:42 437.550
RS-15 27 Jul 02:02:11 02:13:11 44° 251° (WSW) 02:23:40 29.354- 29.394
Oscar 19 27 Jul 02:19:34 02:24:43 65° 102° (ESE) 02:29:51 437.125/150
AO-7 27 Jul 02:26:12 02:27:37 10° 82° (E) 02:29:02 .
BEESAT 27 Jul 02:29:32 02:34:04 45° 69° (ENE) 02:38:37 436.000
nSIGHT-1 27 Jul 02:34:29 02:37:31 39° 216° (SW) 02:40:34 .
DX 1 27 Jul 02:43:48 02:45:28 12° 272° (W) 02:47:08 434.975-435.025
ITUPSAT 1 27 Jul 02:44:05 02:48:48 61° 71° (ENE) 02:53:31 437.325
Gurwin Techsat 1B 27 Jul 03:03:15 03:08:36 83° 286° (WNW) 03:13:55 435.225
MOZHAYETS 4 27 Jul 03:10:41 03:15:15 80° 76° (ENE) 03:19:50
BUGSAT 1 27 Jul 03:17:09 03:19:15 14° 300° (WNW) 03:21:19 437.445
ISS 27 Jul 03:31:36 03:33:29 15° 225° (SW) 03:35:23 437.550
KKS-1 27 Jul 03:36:55 03:40:10 20° 62° (ENE) 03:43:24 437.445
CUBESAT XI-V 27 Jul 03:51:29 03:55:48 43° 70° (ENE) 04:00:11 437.345
PCSat 27 Jul 03:57:29 04:01:36 22° 108° (ESE) 04:05:44 145.827
Oscar 19 27 Jul 03:59:50 04:03:33 20° 301° (WNW) 04:07:17 437.125/150
STARS 27 Jul 04:00:58 04:03:35 16° 60° (ENE) 04:06:13 437.465
BEESAT 27 Jul 04:08:15 04:12:02 23° 267° (W) 04:15:51 436.000
AO-7 27 Jul 04:14:03 04:22:17 57° 103° (ESE) 04:30:25 .
YUBILEINY 27 Jul 04:14:54 04:21:50 25° 60° (ENE) 04:28:42 435.215
ITAMSAT 1 27 Jul 04:15:59 04:21:08 59° 101° (ESE) 04:26:15 435.822/435.867
ITUPSAT 1 27 Jul 04:23:50 04:27:01 17° 269° (W) 04:30:12 437.325
Gurwin Techsat 1B 27 Jul 04:44:57 04:47:45 15° 305° (NW) 04:50:33 435.225
MOZHAYETS 4 27 Jul 04:51:11 04:52:59 12° 272° (W) 04:54:48
KKS-1 27 Jul 05:11:59 05:16:21 51° 260° (W) 05:20:46 437.445
CUBESAT XI-V 27 Jul 05:29:47 05:33:22 22° 267° (W) 05:37:00 437.345
DOVE 4 27 Jul 05:34:15 05:38:47 28° 92° (E) 05:43:09 437.250
STARS 27 Jul 05:34:59 05:39:24 68° 257° (WSW) 05:43:51 437.465
PCSat 27 Jul 05:39:09 05:44:32 64° 307° (NW) 05:49:57 145.827
ITAMSAT 1 27 Jul 05:56:14 06:00:11 22° 300° (WNW) 06:04:08 435.822/435.867
STRAND 1 27 Jul 05:59:53 06:03:35 20° 60° (ENE) 06:07:17 437.568
SO-50 27 Jul 06:04:35 06:08:59 53° 121° (ESE) 06:13:23 436.795
XW-2D 27 Jul 06:05:39 06:08:15 18° 92° (E) 06:10:51 145.860 - 145.880
AO-7 27 Jul 06:07:11 06:14:48 41° 303° (WNW) 06:22:21 .
YUBILEINY 27 Jul 06:11:00 06:19:49 84° 263° (W) 06:28:31 435.215
XW-2B 27 Jul 06:15:30 06:18:28 22° 94° (E) 06:21:25 145.730 - 145.750
CUTE-I 27 Jul 06:20:36 06:25:02 26° 93° (E) 06:29:25 437.470
NUDT-PHONESAT 27 Jul 06:31:00 06:34:02 24° 95° (E) 06:37:04 437.300
XW-2C 27 Jul 06:32:36 06:36:04 34° 97° (E) 06:39:32 145.795 - 145.815
HO-68 27 Jul 06:44:01 06:48:24 17° 87° (E) 06:52:46 435.675
KAITUO 1B 27 Jul 06:48:38 06:52:10 39° 98° (E) 06:55:41 145.475/437.950
LilacSat-2 27 Jul 06:58:35 07:02:23 74° 102° (ESE) 07:06:11 437.200
XW-2F 27 Jul 07:08:18 07:12:04 86° 99° (E) 07:15:50 145.980 - 146.000
DOVE 4 27 Jul 07:11:37 07:16:35 43° 291° (WNW) 07:21:23 437.250
PCSat 27 Jul 07:25:32 07:29:01 17° 329° (NNW) 07:32:32 145.827
STRAND 1 27 Jul 07:37:10 07:42:17 65° 258° (WSW) 07:47:25 437.568
XW-2D 27 Jul 07:39:04 07:42:35 38° 289° (WNW) 07:46:06 145.860 - 145.880
CUTE 1.7 + AOD 2 27 Jul 07:45:44 07:49:45 40° 98° (E) 07:53:46 437.475
SO-50 27 Jul 07:45:50 07:49:42 27° 321° (NW) 07:53:34 436.795
XW-2B 27 Jul 07:49:21 07:52:41 31° 291° (WNW) 07:56:02 145.730 - 145.750
CUBEBUG 2 27 Jul 07:51:08 07:54:36 24° 93° (E) 07:57:59 437.445
FO-29 27 Jul 07:51:12 07:57:22 27° 56° (NE) 08:03:32 435.910
SEEDS 27 Jul 07:53:20 07:57:07 31° 96° (E) 08:00:54 437.485
CUTE-I 27 Jul 08:00:09 08:05:19 49° 291° (WNW) 08:10:26 437.470
AO-7 27 Jul 08:02:22 08:05:18 12° 327° (NNW) 08:08:14 .
NUDT-PHONESAT 27 Jul 08:04:47 08:07:55 26° 292° (WNW) 08:11:01 437.300
XW-2C 27 Jul 08:07:15 08:10:04 20° 294° (WNW) 08:12:53 145.795 - 145.815
YUBILEINY 27 Jul 08:09:39 08:15:13 19° 285° (WNW) 08:20:47 435.215
KAITUO 1B 27 Jul 08:23:22 08:25:53 18° 295° (WNW) 08:28:25 145.475/437.950
TIGRISAT 27 Jul 08:26:25 08:28:40 14° 59° (ENE) 08:30:53 435.000
AAUSAT CUBESAT 2 27 Jul 08:29:22 08:33:14 35° 97° (E) 08:37:04 437.432
HO-68 27 Jul 08:29:58 08:37:11 84° 107° (ESE) 08:44:20 435.675
PRISM 27 Jul 08:31:00 08:32:35 12° 58° (ENE) 08:34:09 437.425
LilacSat-2 27 Jul 08:35:03 08:36:07 11° 300° (WNW) 08:37:10 437.200
XW-2A 27 Jul 08:43:18 08:46:38 68° 284° (WNW) 08:49:56 145.665 - 145.685
UWE-3 27 Jul 08:43:29 08:47:35 50° 99° (E) 08:51:36 435.000/436.395/437.385
ZACube-1 27 Jul 08:51:41 08:55:29 34° 97° (E) 08:59:15 437.345
M-CUBED/EXP-1 PRIME 27 Jul 09:10:45 09:13:37 20° 56° (ENE) 09:16:39 437.505
Oscar 11 27 Jul 09:13:06 09:17:12 40° 98° (E) 09:21:16 .
UNISAT 6 27 Jul 09:16:58 09:21:17 41° 70° (ENE) 09:25:32 437.425
CUTE 1.7 + AOD 2 27 Jul 09:22:04 09:25:21 22° 295° (WNW) 09:28:38 437.475
CUBEBUG 2 27 Jul 09:27:27 09:31:19 34° 291° (WNW) 09:35:04 437.445
SEEDS 27 Jul 09:29:09 09:32:43 27° 293° (WNW) 09:36:17 437.485
AO-73 27 Jul 09:30:07 09:34:17 80° 103° (ESE) 09:38:25 145.935
FO-29 27 Jul 09:33:46 09:41:32 85° 256° (WSW) 09:49:27 435.910
TIGRISAT 27 Jul 10:00:06 10:04:44 83° 255° (WSW) 10:09:18 435.000
PRISM 27 Jul 10:03:07 10:07:14 81° 257° (WSW) 10:11:23 437.425
AAUSAT CUBESAT 2 27 Jul 10:05:10 10:08:31 24° 294° (WNW) 10:11:52 437.432
AIST 2D 27 Jul 10:08:37 10:10:35 14° 64° (ENE) 10:12:33 435.315
HO-68 27 Jul 10:18:43 10:24:07 24° 307° (NW) 10:29:31 435.675
UWE-3 27 Jul 10:20:53 10:23:40 18° 298° (WNW) 10:26:26 435.000/436.395/437.385
NO-84 27 Jul 10:21:32 10:24:08 27° 134° (SE) 10:26:55 435.350 FM
ZACube-1 27 Jul 10:28:17 10:31:37 24° 294° (WNW) 10:34:57 437.345
EO-88 27 Jul 10:32:16 10:35:48 46° 99° (E) 10:39:20 145.990 - 145.960
DUCHIFAT 1 27 Jul 10:40:32 10:43:10 16° 61° (ENE) 10:45:49 145.980
DELFI C3 27 Jul 10:43:18 10:47:20 81° 284° (WNW) 10:51:21 145.870
M-CUBED/EXP-1 PRIME 27 Jul 10:44:09 10:47:43 42° 256° (WSW) 10:51:37 437.505
POLYITAN 1 27 Jul 10:46:14 10:49:33 22° 64° (ENE) 10:52:51 437.675
Oscar 11 27 Jul 10:49:44 10:53:06 22° 295° (WNW) 10:56:28 .
UNISAT 6 27 Jul 10:54:23 10:58:07 24° 267° (W) 11:01:48 437.425
QB50P2 27 Jul 10:58:53 11:02:39 31° 68° (ENE) 11:06:27 145.880/145.840
PCSat 27 Jul 10:58:55 11:01:04 12° 22° (NNE) 11:03:13 145.827
NANOSAT C BR1 27 Jul 11:08:13 11:12:00 32° 68° (ENE) 11:15:48 145.865
AO-73 27 Jul 11:08:24 11:09:55 12° 301° (WNW) 11:11:25 145.935
EO-79 27 Jul 11:09:47 11:13:42 37° 69° (ENE) 11:17:38 145.935-145.965
FO-29 27 Jul 11:22:13 11:27:33 20° 275° (W) 11:32:59 435.910
AO-85 27 Jul 11:38:13 11:41:10 20° 114° (ESE) 11:44:06 145.980
AIST 2D 27 Jul 11:40:08 11:43:27 42° 261° (W) 11:46:47 435.315
NO-84 27 Jul 11:58:26 12:01:26 42° 335° (NNW) 12:04:41 435.350 FM
LO-87 27 Jul 12:01:13 12:04:51 76° 102° (ESE) 12:08:25 145.935 - 145.965
Oscar 19 27 Jul 12:02:01 12:05:35 20° 59° (ENE) 12:09:11 437.125/150
EO-88 27 Jul 12:07:02 12:09:07 15° 297° (WNW) 12:11:12 145.990 - 145.960
DUCHIFAT 1 27 Jul 12:14:14 12:18:24 58° 259° (W) 12:22:37 145.980
ESTCUBE 1 27 Jul 12:19:03 12:23:34 67° 102° (ESE) 12:28:05 437.505/2401.250
POLYITAN 1 27 Jul 12:21:05 12:25:06 40° 262° (W) 12:29:08 437.675
BEESAT 3 27 Jul 12:26:58 12:30:55 65° 124° (SE) 12:34:56 437.485
BUGSAT 1 27 Jul 12:32:04 12:36:16 67° 73° (ENE) 12:40:28 437.445
QB50P2 27 Jul 12:34:48 12:38:27 27° 265° (W) 12:42:07 145.880/145.840
PCSat 27 Jul 12:41:03 12:46:06 37° 46° (NE) 12:51:07 145.827
NANOSAT C BR1 27 Jul 12:44:10 12:47:44 26° 265° (W) 12:51:19 145.865
EO-79 27 Jul 12:46:10 12:49:34 23° 266° (W) 12:53:00 145.935-145.965
Gurwin Techsat 1B 27 Jul 12:48:15 12:52:54 32° 64° (ENE) 12:57:34 435.225
DX 1 27 Jul 12:52:20 12:53:15 11° 88° (E) 12:54:10 434.975-435.025
VELOX 1 27 Jul 12:53:07 12:57:12 34° 97° (E) 13:01:16 145.980
SO-50 27 Jul 12:53:08 12:56:38 21° 35° (NE) 13:00:07 436.795
BEESAT 2 27 Jul 13:13:01 13:16:59 67° 123° (ESE) 13:21:01 435.950
AO-85 27 Jul 13:17:29 13:21:17 44° 313° (NW) 13:25:03 145.980
SPROUT 27 Jul 13:23:11 13:27:29 84° 103° (ESE) 13:31:44 437.525
AO-7 27 Jul 13:25:48 13:32:23 27° 49° (NE) 13:38:57 .
UKube-1 27 Jul 13:27:38 13:30:28 17° 91° (E) 13:33:18 .
NO-84 27 Jul 13:36:57 13:39:34 21° 357° (N) 13:42:22 435.350 FM
Oscar 19 27 Jul 13:39:20 13:44:25 67° 258° (WSW) 13:49:33 437.125/150
ESTCUBE 1 27 Jul 13:57:04 13:59:52 16° 300° (WNW) 14:02:40 437.505/2401.250
ITAMSAT 1 27 Jul 13:59:24 14:03:03 20° 58° (ENE) 14:06:42 435.822/435.867
BEESAT 3 27 Jul 14:05:51 14:08:54 20° 323° (NW) 14:11:58 437.485
BUGSAT 1 27 Jul 14:10:06 14:12:04 13° 271° (W) 14:14:01 437.445
50 SAT 27 Jul 14:11:52 14:15:18 68° 286° (WNW) 14:18:42 437.505
RS-15 27 Jul 14:17:24 14:27:08 29° 102° (ESE) 14:36:56 29.354- 29.394
PCSat 27 Jul 14:24:29 14:29:34 42° 246° (WSW) 14:34:37 145.827
DX 1 27 Jul 14:25:37 14:30:03 85° 286° (WNW) 14:34:26 434.975-435.025
Gurwin Techsat 1B 27 Jul 14:27:44 14:32:43 40° 262° (W) 14:37:45 435.225
O/OREOS (USA 219) 27 Jul 14:29:23 14:33:17 30° 105° (ESE) 14:37:12 437.305
VELOX 1 27 Jul 14:29:44 14:33:32 28° 295° (WNW) 14:37:19 145.980
SO-50 27 Jul 14:33:03 14:37:36 78° 236° (SW) 14:42:10 436.795
ITUPSAT 1 27 Jul 14:43:39 14:45:30 12° 88° (E) 14:47:21 437.325
BEESAT 2 27 Jul 14:52:08 14:55:08 20° 323° (NW) 14:58:12 435.950
SPROUT 27 Jul 15:01:03 15:02:44 12° 302° (WNW) 15:04:24 437.525
AO-85 27 Jul 15:01:58 15:02:41 10° 335° (NNW) 15:03:24 145.980
UKube-1 27 Jul 15:02:35 15:06:49 53° 289° (WNW) 15:11:01 .
MOZHAYETS 4 27 Jul 15:04:01 15:06:39 15° 89° (E) 15:09:17
NO-84 27 Jul 15:14:43 15:17:51 28° 18° (NNE) 15:21:12 435.350 FM
AO-7 27 Jul 15:15:49 15:24:12 88° 250° (WSW) 15:32:39 .
ITAMSAT 1 27 Jul 15:36:46 15:41:59 70° 257° (WSW) 15:47:14 435.822/435.867
BEESAT 27 Jul 16:03:59 16:08:45 72° 104° (ESE) 16:13:29 436.000
DX 1 27 Jul 16:04:04 16:05:30 11° 303° (WNW) 16:06:57 434.975-435.025
O/OREOS (USA 219) 27 Jul 16:08:35 16:12:37 33° 304° (NW) 16:16:41 437.305
SO-50 27 Jul 16:16:34 16:17:17 10° 253° (WSW) 16:17:59 436.795
ITUPSAT 1 27 Jul 16:19:11 16:23:58 85° 287° (WNW) 16:28:43 437.325
RS-15 27 Jul 16:25:50 16:38:09 90° 314° (NW) 16:50:34 29.354- 29.394
MOZHAYETS 4 27 Jul 16:39:44 16:44:15 64° 287° (WNW) 16:48:46
DOVE 4 27 Jul 16:41:45 16:46:20 37° 67° (ENE) 16:51:07 437.250
XW-2D 27 Jul 16:50:22 16:52:22 14° 63° (ENE) 16:54:21 145.860 - 145.880
NO-84 27 Jul 16:51:55 16:55:38 84° 216° (SW) 16:59:39 435.350 FM
XW-2B 27 Jul 16:59:59 17:02:26 17° 64° (ENE) 17:04:55 145.730 - 145.750
KKS-1 27 Jul 17:00:19 17:03:58 24° 94° (E) 17:07:34 437.445
NUDT-PHONESAT 27 Jul 17:13:24 17:15:54 18° 65° (ENE) 17:18:24 437.300
